Regional Weather Roundup
Issued by NWS

Home | Current Version | Previous Version | Graphics & Text | Print | Product List | Glossary On
Versions: 1 2 3 4 5 6 7 8 9 10 11 12 13 14 15 16 17 18 19 20 21 22 23 24 25 26 27 28 29 30 31 32 33 34 35 36 37 38 39 40 41 42 43 44 45 46 47 48 49 50
000
ASUS43 KLOT 281900
RWRIL

ILLINOIS REGIONAL WEATHER ROUNDUP
NATIONAL WEATHER SERVICE CHICAGO/ROMEOVILLE IL
100 PM CST WED JAN 28 2015

NOTE: "FAIR" INDICATES FEW OR NO CLOUDS BELOW 12,000 FEET WITH NO
SIGNIFICANT WEATHER AND/OR OBSTRUCTIONS TO VISIBILITY.

* THESE STATIONS ARE NOT UNDER NWS QUALITY CONTROL. THEY ALSO MAY NOT
  REPORT WEATHER SUCH AS PRECIPITATION OR FOG.

ILZ001-002-007-009-015-016-024-282000-
NORTHWEST ILLINOIS

CITY           SKY/WX    TMP DP  RH WIND       PRES   REMARKS
MOLINE         PTSUNNY   34  26  72 SE16G23   30.01F WCI  24
STERLING*      MOSUNNY   32  21  64 SE13G18   30.08F WCI  22
$$

ILZ003-004-008-010-011-017-018-282000-
NORTH CENTRAL ILLINOIS

CITY           SKY/WX    TMP DP  RH WIND       PRES   REMARKS
ROCKFORD       CLOUDY    32  22  66 S15       30.12F WCI  22
$$

ILZ005-006-012>014-019>023-282000-
NORTHEAST ILLINOIS

CITY           SKY/WX    TMP DP  RH WIND       PRES   REMARKS
CHICAGO-OHARE  CLOUDY    32  18  56 S15       30.15F WCI  22
CHICAGO-MIDWAY PTSUNNY   35  19  52 S14       30.16F WCI  26
AURORA         MOSUNNY   33  21  61 S14       30.14F WCI  23
WAUKEGAN       MOSUNNY   33  19  56 SE9       30.14F WCI  25
DUPAGE AIRPORT MOSUNNY   32  20  61 S12       30.13F WCI  23
WHEELING       MOSUNNY   33  17  51 S13       30.17F WCI  24
NORTHERLY ISL    N/A     33  18  54 S13         N/A  WCI  24
$$

LMZ740>746-282000-
SOUTHERN LAKE MICHIGAN

STATION/POSITION SKY/WX   TEMP    WIND        PRES    VSBY  WAVE
                          AIR SEA DIR/SP/G                  HT/PER
                          (F)     (DEG/KT/KT) (MB)    (MI)  (FT/S)
WAUKEGAN HARBOR            32     150/ 14/ 16   N/A
HARRISON CRIB              30     170/ 17/ 20   N/A
BURNHAM HARBOR             33     150/ 12/ 17   N/A
CALUMET HARBOR             32     160/ 14/ 17   N/A
MICHIGAN CITY              29     150/ 12/ 15   N/A
$$

ILZ025>027-034>036-040-047-049-050-058-095>099-282000-
WEST-CENTRAL ILLINOIS

CITY           SKY/WX    TMP DP  RH WIND       PRES   REMARKS
QUINCY         MOSUNNY   42  30  62 S18G26    29.98F
$$

ILZ028>032-037-038-041>044-048-051>054-059>061-282000-
CENTRAL ILLINOIS

CITY           SKY/WX    TMP DP  RH WIND       PRES   REMARKS
DECATUR        SUNNY     39  28  64 S18G24    30.14F WCI  30
PEORIA         MOSUNNY   38  28  67 S15G25    30.08F WCI  29
SPRINGFIELD    SUNNY     39  29  67 SE21G30   30.10F WCI  29
TAYLORVILLE    NOT AVBL
$$

ILZ033-039-045-046-055>057-062-063-282000-
EAST-CENTRAL ILLINOIS

CITY           SKY/WX    TMP DP  RH WIND       PRES   REMARKS
CHAMPAIGN      SUNNY     35  28  75 SE16      30.17F WCI  25
MATTOON        SUNNY     36  26  67 S18G24    30.17F WCI  26
$$

ILZ079-100>102-282000-
SOUTHWEST ILLINOIS

CITY           SKY/WX    TMP DP  RH WIND       PRES   REMARKS
ALTON          MOSUNNY   41  30  65 SE16G25   30.12F
BELLEVILLE     SUNNY     44  31  62 S10       30.13F
CAHOKIA*       SUNNY     45  32  60 S15G24    30.13F
$$

ILZ064>066-069>071-074>076-080>082-084>086-088>090-092>094-282000-
SOUTH-CENTRAL ILLINOIS

CITY           SKY/WX    TMP DP  RH WIND       PRES   REMARKS
CARBONDALE     SUNNY     43  29  57 S15       30.21F
MT. VERNON     SUNNY     43  30  61 SE12      30.21F
$$

ILZ067-068-072-073-078-083-087-091-282000-
SOUTHEAST ILLINOIS

CITY           SKY/WX    TMP DP  RH WIND       PRES   REMARKS
LAWRENCEVILLE  SUNNY     39  23  52 S14       30.25F WCI  31
$$

ABBREVIATIONS USED IN REMARKS
   TC - TEMPERATURE IN CELSIUS
  WCI - WIND CHILL INDEX
   HX - HEAT INDEX
  VSB - VISIBILITY
$$




USA.gov is the U.S. government's official web portal to all federal, state and local government web resources and services.